Location: Casper
(42.8670°N, 106.3130°W)
Time: 02:46:01
(UTC-06:00)

Daily predictions for brighter satellites

Satellite Brightness Start Highest point End
(mag) Time Altitude Azimuth Time Altitude Azimuth Time Altitude Azimuth
Resurs 1-4 Rocket 4.4 02:56:51 10° NE 02:59:05 20° ENE 02:59:05 20° ENE
ATLAS 2AS CENTAUR R/B 3.6 03:04:31 54° NNE 03:04:31 54° NNE 03:10:35 10° NE
Cosmos 2237 Rocket 4.3 03:26:39 10° N 03:31:11 24° NE 03:35:41 10° ESE
SL-16 R/B 3.6 03:34:26 38° N 03:34:26 38° N 03:38:12 10° N
ATLAS 5 CENTAUR R/B 3.9 03:35:16 10° NNW 03:40:32 32° NE 03:46:10 10° ESE
Cosmos 2219 4.1 03:47:13 44° NNE 03:47:13 44° NNE 03:50:59 10° NNE
Gbstr 26 Del rocket 4.3 03:48:23 79° NE 03:48:23 79° NE 03:56:23 10° ESE
Cosmos 1821 Rocket 4.3 03:43:49 10° N 03:49:37 66° NE 03:49:37 66° NE
Cosmos 1934 Rocket 4.3 03:47:52 10° N 03:54:06 61° E 03:54:45 58° ESE
CZ-4C R/B 4.4 04:03:02 22° SSE 04:03:02 22° SSE 04:05:32 10° SSE
Cosmos 2227 Rocket 3.6 04:03:27 29° SE 04:04:52 33° ESE 04:09:52 10° NE
ARIANE 5 R/B 3.8 04:02:41 10° N 04:05:29 32° N 04:05:29 32° N
NOSS 3-2 (C) 4.5 04:01:04 10° NNW 04:08:23 58° NE 04:16:17 10° SE
Lacrosse 5 3.2 04:08:53 31° ESE 04:08:53 31° ESE 04:13:04 10° ENE
MOS 1-B 4.4 04:04:07 10° NNE 04:09:55 71° ESE 04:10:02 70° ESE
Cosmos 2219 Rocket 2.4 04:05:49 10° NNW 04:11:32 70° ENE 04:17:11 10° SSE
CZ-2D R/B 2.8 04:07:02 10° N 04:10:37 44° N 04:10:37 44° N
Cosmos 2297 Rocket 3.9 04:11:41 19° SE 04:14:29 28° ESE 04:19:15 10° NE
Okean O Rocket 2.8 04:11:46 10° NNE 04:15:53 37° E 04:16:00 37° ESE
Tiangong 1 4.4 04:25:06 11° E 04:25:06 11° E 04:25:19 10° E
Cosmos 1680 Rocket 4.4 04:19:05 10° N 04:24:14 49° ENE 04:29:19 10° SE
Cosmos 2344 3.6 04:26:43 55° SW 04:28:45 83° NW 04:37:39 10° NE
MOZ.5/SAFIR/RUBIN 5/SL-8 3.9 04:29:50 74° ENE 04:29:50 74° ENE 04:34:28 10° N
Lacrosse 5 rocket 2.8 04:33:14 34° N 04:33:14 34° N 04:36:34 10° NE
NOSS 3-4 (A) 3.7 04:31:05 46° S 04:32:53 66° ESE 04:39:23 10° NE
NOSS 3-4 (C) 3.7 04:31:09 46° S 04:33:00 65° ESE 04:39:29 10° NE
IRS-1C Rocket 4.2 04:35:24 10° NNE 04:40:42 72° ESE 04:42:40 39° S
Resurs 1-4 Rocket 2.9 04:36:19 10° N 04:40:09 36° NW 04:40:09 36° NW
Okean 1-7 Rocket 3.6 04:41:43 73° NNE 04:41:43 73° NNE 04:45:43 10° N
Cosmos 2082 4.0 04:41:46 37° S 04:43:57 64° ESE 04:49:32 10° NNE
Cosmos 2333 Rocket 2.0 04:42:43 10° NNW 04:48:27 78° WSW 04:54:06 10° SSE
Thor Agena Rocket 4.1 04:47:10 10° SSE 04:52:21 59° ENE 04:57:34 10° N
Meteor 2-8 Rocket 4.3 04:50:06 39° SSW 04:52:29 74° W 04:58:38 10° N
Cosmos 220 Rocket 4.3 04:52:27 48° SSE 04:53:25 63° ESE 04:57:35 10° NNE
ATLAS 2AS CENTAUR R/B 4.2 04:51:57 23° WNW 04:54:46 27° NNW 05:01:31 10° NNE
Cosmos 968 Rocket 4.4 04:57:09 31° NW 04:57:09 31° NW 05:01:12 10° N
Meteor 1-19 Rocket 4.3 04:53:13 19° S 04:57:23 79° E 05:03:00 10° NNE
BREEZE-M DEB (TANK) 3.5 05:01:55 24° N 05:02:36 27° NNE 05:05:02 10° E
Cosmos 1727 Rocket 3.9 05:03:38 24° SSW 05:07:36 68° W 05:13:54 10° N
Cosmos 923 Rocket 4.1 05:02:44 10° NNW 05:07:57 54° WSW 05:13:08 10° S
Cosmos 1666 3.2 05:05:34 10° N 05:09:25 62° E 05:13:13 10° SSE
COS B Rocket 4.0 05:10:29 28° NE 05:10:29 28° NE 05:12:01 10° NNE
CZ-4B R/B 3.1 05:06:44 10° NNE 05:12:09 78° WNW 05:16:14 18° SSW
Cosmos 2173 Rocket 4.2 05:09:10 10° N 05:15:16 72° E 05:21:23 10° SSE
Cosmos 2237 Rocket 2.2 05:10:06 10° NNW 05:15:37 57° WSW 05:21:06 10° S
SL-16 R/B 4.4 05:19:33 12° NW 05:19:33 12° NW 05:20:19 10° NW
Meteor 2-4 Rocket 3.8 05:10:38 10° S 05:16:26 84° E 05:22:23 10° NNE
OTV 4 2.8 05:18:30 14° SSE 05:18:30 14° SSE 05:19:13 10° SE
Okean-O 3.3 05:13:05 10° NNE 05:17:28 54° E 05:21:48 10° S
Meteor 1-23 Rocket 4.3 05:12:28 10° S 05:18:03 79° E 05:23:46 10° NNE
NOSS 3-2 (A) 4.1 05:14:46 10° NW 05:22:01 51° WSW 05:29:44 10° S
RESURS DK-1 2.2 05:22:24 34° SW 05:24:07 76° WNW 05:28:16 10° NNE
Cosmos 1459 Rocket 4.0 05:18:21 10° N 05:24:47 87° E 05:31:07 10° S
Cosmos 2058 Rocket 3.2 05:20:53 10° N 05:25:16 77° E 05:29:38 10° SSE
ATLAS 5 CENTAUR R/B 2.4 05:19:40 10° NW 05:25:36 59° WSW 05:31:57 10° SSE
Cosmos 1980 4.0 05:23:45 10° NW 05:29:02 41° WSW 05:34:17 10° S
Cosmos 2084 4.5 05:29:51 24° NW 05:30:16 24° NW 05:33:27 10° NNE
Cosmos 1898 Rocket 3.9 05:26:29 10° S 05:31:45 67° ESE 05:37:01 10° NNE
SL-16 R/B 2.2 05:28:53 10° NNW 05:34:37 89° WSW 05:40:17 10° SSE
Cosmos 1743 3.9 05:31:26 10° NNW 05:33:36 24° WNW 05:33:36 24° WNW
MOS 1 Rocket 4.2 05:30:30 10° NNE 05:35:10 54° E 05:40:06 10° S
Cosmos 1346 Rocket 2.7 05:32:28 16° SSW 05:35:32 65° WNW 05:39:31 10° N
Meteor 2-9 Rocket 4.2 05:32:19 10° NNW 05:37:55 70° W 05:43:39 10° S
Meteor PRIRODA 3.7 05:35:00 10° NNE 05:38:45 80° ESE 05:42:27 10° S
ADEOS II 2.0 05:35:09 10° NNE 05:40:27 84° WNW 05:45:43 10° SSW
ASTRO F (AKARI) 4.5 05:37:39 10° S 05:40:40 45° W 05:43:47 10° NNW
CZ-4B R/B 4.4 05:43:05 10° NNE 05:47:02 58° E 05:50:46 10° S
Cosmos 1937 Rocket 3.9 05:42:09 10° S 05:47:17 65° ESE 05:52:32 10° NNE
Cosmos 2227 Rocket 2.8 05:45:20 19° WSW 05:48:49 38° WNW 05:54:05 10° N
USA 116 4.3 05:45:49 10° S 05:50:56 62° WSW 05:55:38 10° NNW
Lacrosse 5 2.2 05:48:06 20° WSW 05:51:24 50° NW 05:56:21 10° NE
CZ-2D R/B 4.1 05:50:24 10° NW 05:51:25 11° NW 05:51:57 10° WNW
Okean O Rocket 2.9 05:48:41 10° NNW 05:52:01 22° WNW 05:53:27 18° W
OE (NEXTSAT) 4.4 05:50:01 20° WNW 05:52:27 86° SSW 05:56:05 10° ESE
Cosmos 1025 Rocket 3.9 05:50:39 18° WSW 05:52:54 28° WNW 05:56:39 10° NNW
Cosmos 2219 Rocket 3.5 05:51:18 10° WNW 05:54:49 17° W 05:58:20 10° SW
Cosmos 724 4.4 05:51:19 10° NW 05:57:30 65° WSW 06:03:38 10° SSE
Cosmos 2297 Rocket 2.6 05:53:34 13° SW 05:58:18 43° WNW 06:03:42 10° NNE
Tiangong 1 0.9 05:57:00 22° WSW 05:58:49 82° S 06:01:53 10° E
Meteor 2-15 4.4 05:52:52 10° S 05:58:55 82° W 06:05:01 10° N
NOSS 3-2 (C) 4.5 05:52:23 10° NW 05:59:13 37° WSW 06:06:27 10° S
CZ-4B R/B 4.3 05:56:44 10° NNW 06:00:12 24° WNW 06:02:56 14° WSW
Cosmos 1626 Rocket 3.8 05:56:38 10° S 06:01:01 76° E 06:05:22 10° NNE
CENTAUR R/B 3.2 05:53:17 10° NW 06:01:07 83° NE 06:09:29 10° SE
ADEOS Rocket 3.6 05:56:08 10° N 06:03:03 48° WNW 06:09:20 10° SW
EXPRESS MD2 3.6 06:02:40 11° WNW 06:05:51 90° SW 06:12:33 10° ESE
Cosmos 292 Rocket 4.3 06:02:25 10° NW 06:06:51 36° WSW 06:11:15 10° SSW
Cosmos 2061 Rocket 4.4 06:05:29 10° NNW 06:11:22 43° W 06:17:18 10° SSW
Lacrosse 5 rocket 3.7 06:10:07 10° NW 06:12:44 15° NNW 06:15:18 10° NNE
NOSS 2-2 (C) 4.2 06:09:46 10° SSW 06:13:47 57° ESE 06:18:25 10° NE
USA 129 2.5 06:12:51 10° SSW 06:14:33 24° W 06:16:11 10° NW
Meteor 1-31 Rocket 2.8 06:11:40 10° N 06:15:30 57° WNW 06:19:21 10° SSW
NOSS 2-2 (E) 4.0 06:11:46 10° SSW 06:15:52 67° ESE 06:20:42 10° NE
Cosmos 1802 Rocket 4.3 06:10:47 10° NNW 06:16:34 43° W 06:22:18 10° SSW
Okean 2 4.4 06:13:44 10° SW 06:17:13 26° WNW 06:20:43 10° NNW
Cosmos 2233 Rocket 4.5 06:11:44 10° N 06:18:01 68° E 06:24:12 10° SSE
Meteor 2-15 Rocket 4.4 06:12:00 10° SSW 06:18:01 69° W 06:24:06 10° N
Cosmos 1603 3.9 06:16:01 10° NNW 06:21:48 84° ENE 06:27:29 10° SSE
Aureole 2 Rocket 2.9 06:19:27 10° NW 06:22:41 35° WSW 06:25:39 10° S
Cosmos 1602 Rocket 3.6 06:19:22 10° SSW 06:23:45 61° W 06:28:10 10° N
Intercosmos 25 Rocket 3.5 06:23:11 10° N 06:26:37 82° E 06:31:28 10° S
SKYMED 2 3.5 06:24:24 10° S 06:28:43 77° WSW 06:33:05 10° NNW
Cosmos 1725 Rocket 4.1 06:24:51 10° NNW 06:31:03 60° W 06:37:10 10° S
